TimeMST,TemperatureF,Dew PointF,Humidity,Sea Level PressureIn,VisibilityMPH,Wind Direction,Wind SpeedMPH,Gust SpeedMPH,PrecipitationIn,Events,Conditions,WindDirDegrees,DateUTC
12:58 AM,63.5,33.3,32,29.91,10.0,ESE,4.6,-,N/A,,Clear,120,2013-05-07 07:58:00
1:58 AM,62.6,32.4,32,29.91,10.0,East,1.2,-,N/A,,Clear,100,2013-05-07 08:58:00
2:58 AM,62.2,32.9,33,29.90,10.0,SSW,6.9,-,N/A,,Clear,210,2013-05-07 09:58:00
3:58 AM,58.6,32.4,37,29.90,10.0,South,5.8,-,N/A,,Clear,180,2013-05-07 10:58:00
4:58 AM,59.9,34.2,38,29.90,10.0,South,4.6,-,N/A,,Clear,180,2013-05-07 11:58:00
5:58 AM,59.2,35.1,40,29.93,10.0,Calm,Calm,-,N/A,,Clear,0,2013-05-07 12:58:00
6:58 AM,63.3,35.4,35,29.93,10.0,SE,5.8,-,N/A,,Clear,140,2013-05-07 13:58:00
7:58 AM,66.6,37.0,34,29.94,10.0,SSW,5.8,-,N/A,,Clear,210,2013-05-07 14:58:00
8:58 AM,70.5,38.1,31,29.94,10.0,Variable,2.3,-,N/A,,Clear,0,2013-05-07 15:58:00
9:55 AM,71.4,41.2,33,29.91,10.0,SSW,8.1,16.1,N/A,,Clear,210,2013-05-07 16:55:00
10:55 AM,72.5,39.2,30,29.90,10.0,SW,6.9,-,N/A,,Partly Cloudy,220,2013-05-07 17:55:00
11:55 AM,75.4,36.7,25,29.88,10.0,SSW,8.1,-,N/A,,Mostly Cloudy,200,2013-05-07 18:55:00
12:58 PM,78.6,32.7,19,29.87,10.0,WSW,11.5,-,N/A,,Scattered Clouds,250,2013-05-07 19:58:00
1:37 PM,80.6,32.0,17,29.95,10.0,WSW,12.7,-,N/A,,Partly Cloudy,250,2013-05-07 20:37:00
1:49 PM,80.6,28.4,15,29.95,10.0,SSW,15.0,23.0,N/A,,Clear,210,2013-05-07 20:49:00
1:58 PM,81.1,29.5,15,29.85,10.0,SW,13.8,26.5,N/A,,Clear,220,2013-05-07 20:58:00
2:22 PM,82.4,26.6,13,29.94,10.0,WSW,16.1,25.3,N/A,,Clear,250,2013-05-07 21:22:00
2:58 PM,81.5,24.6,12,29.81,10.0,WSW,18.4,26.5,N/A,,Clear,240,2013-05-07 21:58:00
3:58 PM,81.9,23.0,11,29.81,10.0,SW,12.7,20.7,N/A,,Clear,220,2013-05-07 22:58:00
4:58 PM,81.0,19.4,10,29.80,10.0,WSW,13.8,27.6,N/A,,Scattered Clouds,250,2013-05-07 23:58:00
5:58 PM,79.7,21.6,12,29.80,10.0,WSW,12.7,23.0,N/A,,Clear,250,2013-05-08 00:58:00
6:58 PM,76.5,22.5,13,29.81,10.0,West,16.1,23.0,N/A,,Partly Cloudy,260,2013-05-08 01:58:00
7:58 PM,72.9,23.0,15,29.83,10.0,West,12.7,-,N/A,,Partly Cloudy,260,2013-05-08 02:58:00
8:55 PM,68.9,43.7,40,29.84,10.0,WNW,10.4,20.7,N/A,,Clear,300,2013-05-08 03:55:00
9:58 PM,66.0,43.3,44,30.00,10.0,West,9.2,-,N/A,,Clear,270,2013-05-08 04:58:00
10:58 PM,64.4,42.3,44,30.01,10.0,WSW,4.6,-,N/A,,Partly Cloudy,250,2013-05-08 05:58:00
11:58 PM,62.1,38.5,42,30.02,10.0,WSW,3.5,-,N/A,,Clear,250,2013-05-08 06:58:00